Weather History for PAVD - October, 2013

Change the Weather History Date:

Wednesday, October 30, 2013

  Actual Average Record
Temperature  
Mean Temperature 40 °F -  
Max Temperature 42 °F 37 °F 46 °F (1980)
Min Temperature 37 °F 26 °F 11 °F (1971)
Degree Days  
Heating Degree Days 26    
Moisture  
Dew Point 37 °F    
Average Humidity 92    
Maximum Humidity 100    
Minimum Humidity 81    
Precipitation  
Precipitation 0.17 in - - ()
Sea Level Pressure  
Sea Level Pressure 29.28 in    
Wind  
Wind Speed 0 mph (East)    
Max Wind Speed 5 mph    
Max Gust Speed -    
Visibility 9 miles    
Events      
Averages and records for this station are not official NWS values.
T = Trace of Precipitation, MM = Missing Value Source: NWS Daily Summary

Daily Weather History Graph

Daily Weather History Graph

Search for Another Location

Airport or City:

Trip Planner

Search our weather history database for the weather conditions in past years. The results will help you decide how hot, cold, wet, or windy it might be!

Date:

Astronomy

Oct. 30, 2013 Rise Set
Actual Time 9:08 AM AKDT 5:47 PM AKDT
Civil Twilight 8:21 AM AKDT 6:34 PM AKDT
Nautical Twilight 7:30 AM AKDT 7:25 PM AKDT
Astronomical Twilight 6:40 AM AKDT 8:15 PM AKDT
Moon 4:04 AM AKDT (10/30) 4:31 PM AKDT (10/30)
Length of Visible Light 10h 13m
Length of Day
8h 39m
Waning Crescent, 16% of the Moon is Illuminated
Oct 30
Waning Crescent
Nov 3
New
Nov 9
First Quarter
Nov 17
Full
Nov 25
Last Quarter

Hourly Weather History & Observations

Time (AKDT) Temp. Windchill Dew Point Humidity Pressure Visibility Wind Dir Wind Speed Gust Speed Precip Events Conditions
12:16 AM 39.2 °F - 37.4 °F 93% 29.53 in 10.0 mi Calm Calm - N/A   Overcast
12:36 AM 37.4 °F - 35.6 °F 93% 29.52 in 10.0 mi Calm Calm - N/A   Overcast
12:56 AM 37.4 °F - 37.4 °F 100% 29.51 in 10.0 mi Calm Calm - N/A   Overcast
1:16 AM 39.2 °F - 37.4 °F 93% 29.50 in 10.0 mi Calm Calm - N/A   Overcast
1:36 AM 39.2 °F - 35.6 °F 87% 29.49 in 10.0 mi Calm Calm - N/A   Overcast
1:56 AM 39.2 °F - 37.4 °F 93% 29.49 in 9.0 mi Calm Calm - N/A   Overcast
2:16 AM 39.2 °F - 35.6 °F 87% 29.48 in 5.0 mi Calm Calm - 0.01 in   Overcast
2:36 AM 39.2 °F - 35.6 °F 87% 29.47 in 8.0 mi Calm Calm - 0.02 in   Overcast
2:56 AM 39.2 °F - 35.6 °F 87% 29.46 in 10.0 mi Calm Calm - 0.03 in   Overcast
3:16 AM 39.2 °F - 37.4 °F 93% 29.43 in 10.0 mi Calm Calm - N/A   Overcast
3:36 AM 37.4 °F - 37.4 °F 100% 29.42 in 10.0 mi Calm Calm - N/A   Mostly Cloudy
3:56 AM 39.2 °F - 35.6 °F 87% 29.41 in 10.0 mi Calm Calm - N/A   Overcast
4:16 AM 37.4 °F - 37.4 °F 100% 29.41 in 8.0 mi Calm Calm - N/A   Overcast
4:36 AM 39.2 °F - 37.4 °F 93% 29.40 in 9.0 mi Calm Calm - N/A   Overcast
4:56 AM 39.2 °F - 37.4 °F 93% 29.38 in 8.0 mi Calm Calm - N/A   Overcast
5:16 AM 39.2 °F - 37.4 °F 93% 29.37 in 0.5 mi Calm Calm - 0.01 in   Overcast
5:36 AM 39.2 °F - 37.4 °F 93% 29.36 in 0.2 mi Calm Calm - 0.01 in   Overcast
5:56 AM 37.4 °F - 37.4 °F 100% 29.35 in 2.0 mi Calm Calm - 0.01 in   Overcast
6:16 AM 39.2 °F - 37.4 °F 93% 29.33 in 5.0 mi Calm Calm - N/A   Overcast
6:36 AM 39.2 °F - 37.4 °F 93% 29.33 in 5.0 mi Calm Calm - N/A   Overcast
6:56 AM 39.2 °F - 37.4 °F 93% 29.32 in 7.0 mi Calm Calm - 0.01 in   Overcast
7:16 AM 37.4 °F - 35.6 °F 93% 29.31 in 7.0 mi Calm Calm - 0.01 in   Overcast
7:36 AM 39.2 °F - 37.4 °F 93% 29.30 in 7.0 mi Calm Calm - 0.01 in   Overcast
7:56 AM 39.2 °F - 35.6 °F 87% 29.29 in 8.0 mi Calm Calm - 0.02 in   Overcast
8:16 AM 39.2 °F - 37.4 °F 93% 29.28 in 8.0 mi Calm Calm - N/A   Overcast
8:36 AM 39.2 °F - 35.6 °F 87% 29.27 in 8.0 mi Calm Calm - N/A   Overcast
8:56 AM 37.4 °F - 35.6 °F 93% 29.26 in 10.0 mi Calm Calm - 0.01 in   Overcast
9:16 AM 37.4 °F - 37.4 °F 100% 29.25 in 10.0 mi Calm Calm - 0.01 in   Overcast
9:36 AM 37.4 °F - 35.6 °F 93% 29.24 in 10.0 mi Calm Calm - 0.02 in   Overcast
9:56 AM 39.2 °F - 37.4 °F 93% 29.24 in 10.0 mi Calm Calm - 0.02 in   Overcast
10:16 AM 39.2 °F - 35.6 °F 87% 29.24 in 10.0 mi Calm Calm - N/A   Overcast
10:36 AM 39.2 °F - 37.4 °F 93% 29.23 in 10.0 mi Calm Calm - N/A   Overcast
10:56 AM 39.2 °F - 37.4 °F 93% 29.23 in 10.0 mi Calm Calm - 0.01 in   Overcast
11:16 AM 39.2 °F - 37.4 °F 93% 29.22 in 10.0 mi Calm Calm - N/A   Overcast
11:36 AM 39.2 °F - 37.4 °F 93% 29.22 in 10.0 mi Calm Calm - N/A   Overcast
11:56 AM 39.2 °F - 37.4 °F 93% 29.21 in 10.0 mi Calm Calm - 0.01 in   Overcast
12:16 PM 41.0 °F - 37.4 °F 87% 29.21 in 10.0 mi Calm Calm - N/A   Overcast
12:36 PM 39.2 °F - 37.4 °F 93% 29.21 in 10.0 mi Calm Calm - 0.01 in   Overcast
12:56 PM 39.2 °F - 37.4 °F 93% 29.20 in 7.0 mi Calm Calm - 0.02 in   Overcast
1:16 PM 41.0 °F - 39.2 °F 93% 29.20 in 7.0 mi Calm Calm - 0.01 in   Overcast
1:36 PM 41.0 °F - 39.2 °F 93% 29.19 in 7.0 mi Calm Calm - 0.01 in   Overcast
1:56 PM 42.8 °F - 39.2 °F 87% 29.19 in 10.0 mi Calm Calm - 0.01 in   Overcast
2:16 PM 42.8 °F - 39.2 °F 87% 29.19 in 10.0 mi Calm Calm - 0.01 in   Overcast
2:36 PM 41.0 °F - 39.2 °F 93% 29.19 in 10.0 mi Calm Calm - 0.01 in   Overcast
2:56 PM 41.0 °F - 37.4 °F 87% 29.19 in 10.0 mi Calm Calm - 0.01 in   Mostly Cloudy
3:16 PM 41.0 °F - 39.2 °F 93% 29.18 in 10.0 mi Calm Calm - N/A   Mostly Cloudy
3:36 PM 41.0 °F - 37.4 °F 87% 29.19 in 10.0 mi Calm Calm - 0.01 in   Mostly Cloudy
3:56 PM 41.0 °F - 37.4 °F 87% 29.18 in 10.0 mi Calm Calm - 0.01 in   Mostly Cloudy
4:16 PM 41.0 °F - 39.2 °F 93% 29.18 in 10.0 mi Calm Calm - N/A   Mostly Cloudy
4:36 PM 41.0 °F - 39.2 °F 93% 29.19 in 10.0 mi Calm Calm - N/A   Mostly Cloudy
4:56 PM 41.0 °F - 39.2 °F 93% 29.19 in 10.0 mi Calm Calm - N/A   Mostly Cloudy
5:16 PM 41.0 °F - 39.2 °F 93% 29.19 in 10.0 mi Calm Calm - N/A   Mostly Cloudy
5:36 PM 41.0 °F - 39.2 °F 93% 29.19 in 10.0 mi Calm Calm - N/A   Mostly Cloudy
5:56 PM 41.0 °F - 39.2 °F 93% 29.19 in 10.0 mi Calm Calm - N/A   Mostly Cloudy
6:16 PM 41.0 °F - 39.2 °F 93% 29.19 in 10.0 mi Calm Calm - N/A   Mostly Cloudy
6:36 PM 41.0 °F - 37.4 °F 87% 29.19 in 10.0 mi Calm Calm - N/A   Mostly Cloudy
6:56 PM 39.2 °F - 37.4 °F 93% 29.19 in 10.0 mi Calm Calm - N/A   Mostly Cloudy
7:16 PM 39.2 °F - 37.4 °F 93% 29.19 in 10.0 mi Calm Calm - N/A   Mostly Cloudy
7:36 PM 39.2 °F 35.9 °F 35.6 °F 87% 29.20 in 10.0 mi North 4.6 mph - N/A   Mostly Cloudy
7:56 PM 39.2 °F - 35.6 °F 87% 29.19 in 10.0 mi Calm Calm - N/A   Mostly Cloudy
8:16 PM 39.2 °F - 37.4 °F 93% 29.19 in 10.0 mi Calm Calm - N/A   Mostly Cloudy
8:36 PM 37.4 °F - 35.6 °F 93% 29.20 in 10.0 mi Calm Calm - N/A   Mostly Cloudy
8:56 PM 39.2 °F - 35.6 °F 87% 29.20 in 10.0 mi Calm Calm - N/A   Mostly Cloudy
9:16 PM 37.4 °F - 35.6 °F 93% 29.20 in 10.0 mi Calm Calm - N/A   Mostly Cloudy
9:36 PM 37.4 °F 34.9 °F 35.6 °F 93% 29.20 in 10.0 mi East 3.5 mph - N/A   Mostly Cloudy
9:56 PM 39.2 °F - 37.4 °F 93% 29.21 in 10.0 mi Calm Calm - N/A   Mostly Cloudy
10:16 PM 39.2 °F 35.9 °F 35.6 °F 87% 29.21 in 10.0 mi SSE 4.6 mph - N/A   Overcast
10:36 PM 37.4 °F - 35.6 °F 93% 29.21 in 10.0 mi Calm Calm - N/A   Overcast
10:56 PM 39.2 °F - 33.8 °F 81% 29.22 in 10.0 mi Calm Calm - N/A   Overcast
11:16 PM 39.2 °F - 37.4 °F 93% 29.22 in 10.0 mi Calm Calm - N/A   Overcast
11:36 PM 39.2 °F - 35.6 °F 87% 29.23 in 10.0 mi Calm Calm - N/A   Overcast
11:56 PM 39.2 °F - 37.4 °F 93% 29.23 in 10.0 mi Calm Calm - N/A   Overcast